Location: *
(49.9853°N, 3.5569°E)
Time: 05:40:50
(UTC+00:00)

Cosmos 405 Rocket - Pass Details

Date: 14 December 2019
Orbit: 490 x 554 km, 81.3° (Epoch: 20 January)

Event Time Altitude Azimuth Distance (km) Brightness Sun altitude
Rises 16:57:34 0° 0° (N) 2,583 6.0 -11.1°
Reaches altitude 10° 17:00:13 10° 20° (NNE) 1,696 4.9 -11.5°
Enters shadow 17:02:13 17° 53° (NE) 1,297 4.1 -11.8°
